When you browse on this site, cookies collect data to enhance your experience and personalize the content and advertising you see.
Visit our Privacy Policy to learn more. By continuing to use the site, you agree to this use of cookies and data.
  • In Deutschland
  • Länderverzeichnis
  • Für 7 Tage
  • Wassertemperatur
  • Wetterkarte
  • Widgets
  • user-avatar
    Anmelden

    Stündliche Wetter Fagernes

    Heute, 31 März, Dienstag

    Zeit Temperatur Niederschläge Wind Luftdruck Luftfeuchtigkeit
    00:00 -6°C° 0 mm 1 m/S 735 mmHg 84%
    01:00 -7°C° 0 mm 2 m/S 735 mmHg 84%
    02:00 -7°C° 0 mm 2 m/S 734 mmHg 85%
    03:00 -7°C° 0 mm 2 m/S 733 mmHg 86%
    04:00 -7°C° 0 mm 2 m/S 733 mmHg 86%
    05:00 -7°C° 0 mm 2 m/S 732 mmHg 87%
    06:00 -7°C° 0 mm 2 m/S 732 mmHg 87%
    07:00 -8°C° 0 mm 3 m/S 732 mmHg 88%
    08:00 -6°C° 0 mm 3 m/S 731 mmHg 87%
    09:00 -2°C° 0 mm 3 m/S 730 mmHg 85%
    10:00 0°C° 0 mm 3 m/S 729 mmHg 84%
    11:00 +1°C° 0 mm 3 m/S 728 mmHg 85%
    12:00 +2°C° 0 mm 3 m/S 727 mmHg 87%
    13:00 +3°C° 0 mm 4 m/S 727 mmHg 89%
    14:00 +3°C° 0 mm 4 m/S 726 mmHg 87%
    15:00 +3°C° 0 mm 4 m/S 725 mmHg 85%
    16:00 +3°C° 0 mm 3 m/S 724 mmHg 84%
    17:00 +2°C° 0 mm 3 m/S 724 mmHg 82%
    18:00 +1°C° 0 mm 3 m/S 724 mmHg 81%
    19:00 -1°C° 0 mm 4 m/S 724 mmHg 80%
    20:00 -1°C° 0 mm 3 m/S 723 mmHg 81%
    21:00 -1°C° 0 mm 3 m/S 723 mmHg 82%
    22:00 -2°C° 0 mm 3 m/S 723 mmHg 83%
    23:00 -2°C° 0 mm 3 m/S 723 mmHg 84%

    Morgen, 1 April, Mittwoch

    Zeit Temperatur Niederschläge Wind Luftdruck Luftfeuchtigkeit
    00:00 -2°C° 0 mm 3 m/S 722 mmHg 84%
    01:00 -4°C° 0 mm 3 m/S 722 mmHg 85%
    02:00 -4°C° 0 mm 3 m/S 722 mmHg 85%
    03:00 -3°C° 0 mm 2 m/S 721 mmHg 86%
    04:00 -3°C° 0 mm 2 m/S 720 mmHg 86%
    05:00 -2°C° 0 mm 2 m/S 720 mmHg 86%
    06:00 -2°C° 0 mm 2 m/S 720 mmHg 86%
    07:00 -2°C° 0 mm 2 m/S 719 mmHg 86%
    08:00 -1°C° 0 mm 2 m/S 719 mmHg 85%
    09:00 +1°C° 0 mm 2 m/S 718 mmHg 85%
    10:00 +3°C° 0 mm 2 m/S 718 mmHg 84%
    11:00 +3°C° 0 mm 2 m/S 717 mmHg 85%
    12:00 +2°C° 0 mm 3 m/S 716 mmHg 87%
    13:00 +3°C° 0 mm 3 m/S 716 mmHg 88%
    14:00 +3°C° 0 mm 3 m/S 715 mmHg 88%
    15:00 +3°C° 0 mm 4 m/S 714 mmHg 87%
    16:00 +4°C° 0 mm 4 m/S 713 mmHg 87%
    17:00 +1°C° 0 mm 4 m/S 712 mmHg 85%
    18:00 +1°C° 0 mm 3 m/S 712 mmHg 83%
    19:00 0°C° 0 mm 3 m/S 712 mmHg 82%
    20:00 -1°C° 0 mm 3 m/S 711 mmHg 82%
    21:00 -2°C° 0 mm 3 m/S 711 mmHg 83%
    22:00 -4°C° 0 mm 2 m/S 711 mmHg 84%
    23:00 -4°C° 0 mm 2 m/S 710 mmHg 84%

    übermorgen, 2 April, Donnerstag

    Zeit Temperatur Niederschläge Wind Luftdruck Luftfeuchtigkeit
    00:00 -5°C° 0 mm 2 m/S 710 mmHg 84%
    01:00 -5°C° 0 mm 2 m/S 710 mmHg 85%
    02:00 -6°C° 0 mm 3 m/S 709 mmHg 84%
    03:00 -6°C° 0 mm 3 m/S 708 mmHg 84%
    04:00 -6°C° 0 mm 3 m/S 707 mmHg 84%
    05:00 -5°C° 0 mm 4 m/S 705 mmHg 83%
    06:00 -5°C° 0 mm 6 m/S 703 mmHg 82%
    07:00 -4°C° 0 mm 7 m/S 701 mmHg 81%
    08:00 -3°C° 0.4 mm 7 m/S 700 mmHg 77%
    09:00 -3°C° 0.4 mm 7 m/S 700 mmHg 73%
    10:00 -3°C° 0.4 mm 7 m/S 699 mmHg 69%
    11:00 -3°C° 0.1 mm 7 m/S 699 mmHg 66%
    12:00 -3°C° 0.1 mm 7 m/S 699 mmHg 64%
    13:00 -4°C° 0.1 mm 7 m/S 699 mmHg 62%
    14:00 -4°C° 0.2 mm 6 m/S 699 mmHg 64%
    15:00 -4°C° 0.2 mm 5 m/S 699 mmHg 66%
    16:00 -3°C° 0.2 mm 4 m/S 699 mmHg 68%
    17:00 -4°C° 0 mm 4 m/S 699 mmHg 70%
    18:00 -5°C° 0 mm 4 m/S 699 mmHg 72%
    19:00 -6°C° 0 mm 3 m/S 700 mmHg 74%
    20:00 -7°C° 0 mm 4 m/S 701 mmHg 76%
    21:00 -8°C° 0 mm 4 m/S 702 mmHg 77%
    22:00 -8°C° 0 mm 4 m/S 702 mmHg 78%
    23:00 -8°C° 0 mm 4 m/S 703 mmHg 79%

    3 April, Freitag

    Zeit Temperatur Niederschläge Wind Luftdruck Luftfeuchtigkeit
    00:00 -8°C° 0 mm 4 m/S 703 mmHg 80%
    01:00 -8°C° 0 mm 4 m/S 704 mmHg 81%
    02:00 -8°C° 0 mm 4 m/S 704 mmHg 82%
    03:00 -8°C° 0 mm 3 m/S 705 mmHg 82%
    04:00 -8°C° 0 mm 3 m/S 705 mmHg 83%
    05:00 -8°C° 0 mm 3 m/S 706 mmHg 83%
    06:00 -7°C° 0 mm 2 m/S 707 mmHg 84%
    07:00 -8°C° 0 mm 2 m/S 708 mmHg 84%
    08:00 -6°C° 0 mm 2 m/S 709 mmHg 79%
    09:00 -5°C° 0 mm 3 m/S 710 mmHg 74%
    10:00 -4°C° 0 mm 3 m/S 710 mmHg 69%
    11:00 -3°C° 0 mm 4 m/S 711 mmHg 65%
    12:00 -4°C° 0 mm 5 m/S 712 mmHg 62%
    13:00 -3°C° 0 mm 6 m/S 712 mmHg 58%
    14:00 -3°C° 0 mm 6 m/S 713 mmHg 59%
    15:00 -4°C° 0 mm 6 m/S 713 mmHg 59%
    16:00 -4°C° 0 mm 6 m/S 714 mmHg 60%
    17:00 -5°C° 0 mm 5 m/S 715 mmHg 64%
    18:00 -7°C° 0 mm 4 m/S 716 mmHg 68%
    19:00 -7°C° 0 mm 3 m/S 716 mmHg 72%
    20:00 -9°C° 0 mm 3 m/S 717 mmHg 74%
    21:00 -10°C° 0 mm 3 m/S 718 mmHg 77%
    22:00 -10°C° 0 mm 2 m/S 719 mmHg 79%
    23:00 -10°C° 0 mm 2 m/S 720 mmHg 80%

    4 April, Samstag

    Zeit Temperatur Niederschläge Wind Luftdruck Luftfeuchtigkeit
    00:00 -12°C° 0 mm 2 m/S 720 mmHg 82%
    01:00 -12°C° 0 mm 2 m/S 721 mmHg 83%
    02:00 -12°C° 0 mm 2 m/S 722 mmHg 83%
    03:00 -13°C° 0 mm 2 m/S 722 mmHg 84%
    04:00 -13°C° 0 mm 2 m/S 723 mmHg 84%
    05:00 -12°C° 0 mm 2 m/S 724 mmHg 84%
    06:00 -12°C° 0 mm 2 m/S 725 mmHg 84%
    07:00 -10°C° 0 mm 1 m/S 725 mmHg 84%
    08:00 -9°C° 0 mm 2 m/S 726 mmHg 80%
    09:00 -7°C° 0 mm 2 m/S 727 mmHg 76%
    10:00 -5°C° 0 mm 2 m/S 727 mmHg 72%
    11:00 -4°C° 0 mm 2 m/S 727 mmHg 70%
    12:00 -3°C° 0 mm 2 m/S 728 mmHg 68%
    13:00 -2°C° 0 mm 2 m/S 728 mmHg 66%
    14:00 -2°C° 0 mm 2 m/S 728 mmHg 68%
    15:00 -2°C° 0 mm 2 m/S 728 mmHg 70%
    16:00 -1°C° 0 mm 2 m/S 728 mmHg 71%
    17:00 -2°C° 0 mm 2 m/S 727 mmHg 76%
    18:00 -3°C° 0 mm 2 m/S 727 mmHg 81%
    19:00 -3°C° 0 mm 2 m/S 727 mmHg 86%
    20:00 -4°C° 0 mm 2 m/S 727 mmHg 87%
    21:00 -4°C° 0 mm 2 m/S 727 mmHg 89%
    22:00 -4°C° 0 mm 2 m/S 727 mmHg 90%
    23:00 -3°C° 0 mm 2 m/S 727 mmHg 91%

    5 April, Sonntag

    Zeit Temperatur Niederschläge Wind Luftdruck Luftfeuchtigkeit
    00:00 -4°C° 0 mm 3 m/S 727 mmHg 92%
    01:00 -4°C° 0 mm 3 m/S 727 mmHg 94%
    02:00 -2°C° 0 mm 3 m/S 726 mmHg 94%
    03:00 -2°C° 0 mm 3 m/S 726 mmHg 93%
    04:00 -3°C° 0 mm 4 m/S 726 mmHg 93%
    05:00 -2°C° 0 mm 4 m/S 726 mmHg 93%
    06:00 -2°C° 0 mm 4 m/S 726 mmHg 92%
    07:00 -2°C° 0 mm 4 m/S 725 mmHg 91%
    08:00 -1°C° 0 mm 5 m/S 725 mmHg 91%
    09:00 0°C° 0 mm 5 m/S 725 mmHg 91%
    10:00 +1°C° 0 mm 6 m/S 725 mmHg 91%
    11:00 +2°C° 0.1 mm 6 m/S 725 mmHg 91%
    12:00 +2°C° 0.1 mm 6 m/S 725 mmHg 91%
    13:00 +3°C° 0.1 mm 6 m/S 725 mmHg 91%
    14:00 +3°C° 0 mm 6 m/S 725 mmHg 91%
    15:00 +3°C° 0 mm 6 m/S 725 mmHg 90%
    16:00 +4°C° 0 mm 6 m/S 725 mmHg 90%
    17:00 +3°C° 0 mm 5 m/S 725 mmHg 91%
    18:00 +3°C° 0 mm 4 m/S 725 mmHg 91%
    19:00 +3°C° 0 mm 4 m/S 725 mmHg 92%
    20:00 +2°C° 0 mm 3 m/S 725 mmHg 93%
    21:00 +2°C° 0 mm 3 m/S 726 mmHg 94%
    22:00 +2°C° 0 mm 2 m/S 726 mmHg 95%
    23:00 +2°C° 0 mm 2 m/S 726 mmHg 95%
    Mehr zeigen